Home > Weather > Vista > Past weeks

Flag for USA Past Weather in Vista, California, USA — Yesterday and Last 2 Weeks

Now
75 °F

Sunny.


Feels Like: 76 °F
Forecast: 65 / 84 °F
Wind: 10 mph from Southwest

Location: McClellan-Palomar Airport

Current Time: Jul 29, 2016 at 4:50:35 PM

Latest Report: Jul 29, 2016 at 3:53 PM


Visibility: 10 mi

Pressure: 29.79 "Hg

Humidity: 74%

Dew Point: 66 °F

Location of VistaLocation

Past Weather in Vista — Graph

°F

Vista Temperature Yesterday

Maximum temperature yesterday: 79 °F (at 1:53 PM)
Minimum temperature yesterday: 70 °F (at 4:53 AM)
Average temperature yesterday: 74 °F

High & Low Weather Summary for the Past Weeks

 TemperatureHumidityPressure
High84 °F (Jul 22, 2:53 PM)100% (Jul 22, 6:59 AM)30.02 "Hg (Jul 22, 6:59 AM)
Low66 °F (Jul 15, 6:53 AM)50% (Jul 22, 6:53 PM)29.78 "Hg (Jul 23, 4:53 AM)
Average72 °F80%29.90 "Hg
* Reported Jul 14 2:53 PM — Jul 29 2:53 PM, Vista, Weather by CustomWeather, © 2016

Note: Actual official high and low records may vary slightly from our data, if they occured in-between our weather recording intervals... More about our weather records

Advertising

Vista Weather History for the Previous 24 Hours

Scroll right to see more
 ConditionsComfort  
Time TempWeatherWind HumidityBarometerVisibility
2:53 PM
Fri, Jul 29
75 °FSunny.9 mph76%29.80 "Hg10 mi
1:53 PM75 °FSunny.8 mph76%29.82 "Hg10 mi
12:53 PM76 °FSunny.8 mph74%29.83 "Hg10 mi
11:53 AM77 °FSunny.7 mph74%29.84 "Hg10 mi
10:53 AM76 °FSunny.8 mph77%29.84 "Hg10 mi
9:53 AM76 °FSunny.7 mph80%29.83 "Hg9 mi
8:53 AM74 °FPassing clouds.7 mph85%29.83 "Hg8 mi
7:53 AM72 °FPartly sunny.3 mph91%29.83 "Hg7 mi
6:53 AM71 °FClear.No wind93%29.82 "Hg7 mi
5:53 AM70 °FFog.No wind93%29.81 "Hg6 mi
4:53 AM70 °FClear.No wind93%29.80 "Hg7 mi
3:53 AM70 °FPassing clouds.No wind93%29.80 "Hg7 mi
2:53 AM71 °FLow clouds.No wind90%29.81 "Hg8 mi
1:53 AM71 °FClear.No wind87%29.81 "Hg10 mi
12:53 AM71 °FClear.No wind87%29.82 "Hg10 mi
11:53 PM
Thu, Jul 28
71 °FClear.No wind87%29.83 "Hg10 mi
10:53 PM71 °FClear.No wind87%29.84 "Hg10 mi
9:53 PM71 °FClear.3 mph87%29.84 "Hg10 mi
8:53 PM72 °FClear.5 mph81%29.83 "Hg10 mi
7:53 PM73 °FSunny.6 mph74%29.82 "Hg10 mi
6:53 PM74 °FSunny.7 mph69%29.82 "Hg10 mi
5:53 PM76 °FSunny.8 mph72%29.82 "Hg10 mi
4:53 PM78 °FSunny.8 mph62%29.83 "Hg10 mi
Weather by CustomWeather, © 2016

See weather overviewHow to use our weather pages